COSMOS 249

Satellite information

Favourite Embed

Satellite Type and Status

PAYLOADIN ORBIT

Key statistics

Satellite COSMOS 249 at a glance.

Uptime

20652

Days in orbit

Revolutions

≈ 13.0

Per day

Orbit

MEO

Medium Earth Orbit

Inclination

62.4

Latest

Satellite identification and parameters

Extended collection of information and parameters for COSMOS 249.

Object identification

Identified? True

Debris? False

Object name: COSMOS 249

International designator: 1968-091A

Object number (NORAD): 3504

Object ID (CCSDS): 3504

Country: COMMONWEALTH OF INDEPENDENT STATES (CIS)

Current information (Y/N): Y

RCS size: LARGE

Orbital parameters

Period: 111.034 minutes

Inclination: 62.3558 deg

SMA: 7652.387 km

Apoapsis: 2025.551 km

Periapsis: 522.953 km

RAAN: 206.6414 deg

Eccentricy: 0.0981784

Argument of periapsis: 297.4979 deg

Mean anomaly: 52.9565 deg

Mean motion: 12.96902646 rev/day

Mean motion (dot): 0.00000087 rev/day2

B* drag term: 0.000066175 1/REarth

Two-line elements (TLE)

Creation date: May 6, 2025, 3:54 a.m.

Reference frame: TEME

Reference center: EARTH

Epoch: May 5, 2025, 6:45 p.m. UTC

TLE line 0: 0 COSMOS 249

TLE line 1: 1 03504U 68091A 25125.78153082 .00000087 00000-0 66175-4 0 9999

TLE line 2: 2 03504 62.3558 206.6414 0981784 297.4979 52.9565 12.96902646667646

Live tracking on map

Real-time ground track for satellite COSMOS 249.

In-orbit conjunctions

A list of the most updated potential collisions computed for object COSMOS 249.

Target Orbit TCA Probability of collision Miss distance Type
FENGYUN 1C DEB SSO 2024-10-22 03:32:13 0.0001197089 325.0 (m) DEBRIS

Associated space launch

The I2P satellites were the first soviet coorbital ASAT system.

COSMOS 249 was lifted into orbit during the mission ‘Tsiklon-2A | I2P 1’, on board a Tsiklon-2A space rocket.

The launch took place on Oct. 20, 1968, 4:02 a.m. from 90/20.

For more information about the launch, click the button.

Launch to space Tsiklon-2A | I2P 1
Tsiklon-2A | I2P 1

Agency: N/A

Status: Launch Successful

Launch date: Oct. 20, 1968, 4:02 a.m. UTC

Rocket: Tsiklon-2A

Launch pad: 90/20

Location: Baikonur Cosmodrome, Republic of Kazakhstan

...

Latest news about this satellite

There are no fresh news available about this satellite. Check back as we update our databases every day.


Newsletter sign-up

Weekly statistics, charts and insights to help you stay on top of the space industry.